Spokane Felts, WA

9:00 AM PST on December 15, 2017 (GMT -0800)
Felts

Weather History for KSFF - March, 2013

Change the Weather History Date:

Tuesday, March 5, 2013

  Actual Average Record
Temperature  
Mean Temperature 37 °F 38 °F  
Max Temperature 44 °F 48 °F 59 °F (2005)
Min Temperature 29 °F 28 °F 23 °F (2008)
Degree Days  
Heating Degree Days 28 27  
Month to date heating degree days 117 138  
Since 1 July heating degree days 4225 4709  
Cooling Degree Days 0 0  
Month to date cooling degree days 0 0  
Year to date cooling degree days 0 0  
Moisture  
Dew Point 23 °F    
Average Humidity 58    
Maximum Humidity 78    
Minimum Humidity 37    
Precipitation  
Precipitation T in 0.03 in 0.70 in (2014)
Month to date precipitation T 0.19  
Year to date precipitation 2.23 3.52  
Sea Level Pressure  
Sea Level Pressure 29.98 in    
Wind  
Wind Speed 2 mph (ENE)    
Max Wind Speed 13 mph    
Max Gust Speed 17 mph    
Visibility 10 miles    
Events Rain    
T = Trace of Precipitation, MM = Missing Value Source: NWS Daily Summary

Daily Weather History Graph

Daily Weather History Graph

Search for Another Location

Airport or City:

Trip Planner

Search our weather history database for the weather conditions in past years. The results will help you decide how hot, cold, wet, or windy it might be!

Date:

Astronomy

Mar. 05, 2013 Rise Set
Actual Time 6:21 AM PST 5:40 PM PST
Civil Twilight 5:50 AM PST 6:11 PM PST
Nautical Twilight 5:15 AM PST 6:47 PM PST
Astronomical Twilight 4:39 AM PST 7:23 PM PST
Moon 1:57 AM PST (3/5) 11:05 AM PST (3/5)
Length of Visible Light 12h 20m
Length of Day
11h 19m
Last Quarter, 39% of the Moon is Illuminated
Mar 5
Last Quarter
Mar 11
New
Mar 19
First Quarter
Mar 27
Full
Apr 2
Last Quarter

Hourly Weather History & Observations

Time (PST) Temp. Windchill Dew Point Humidity Pressure Visibility Wind Dir Wind Speed Gust Speed Precip Events Conditions
12:53 AM 28.9 °F - 19.9 °F 69% 30.12 in 10.0 mi Calm Calm - N/A   Clear
1:53 AM 30.9 °F - 21.0 °F 67% 30.09 in 10.0 mi Calm Calm - N/A   Clear
2:53 AM 30.0 °F - 21.0 °F 69% 30.08 in 10.0 mi Calm Calm - N/A   Clear
4:53 AM 32.0 °F 28.7 °F 17.6 °F 55% 30.03 in 10.0 mi ESE 3.5 mph - N/A   Clear
5:53 AM 30.0 °F - 21.0 °F 69% 30.07 in 10.0 mi Calm Calm - N/A   Scattered Clouds
6:53 AM 32.0 °F - 19.9 °F 61% 30.07 in 10.0 mi Calm Calm - N/A   Overcast
7:53 AM 34.0 °F - 21.0 °F 59% 30.05 in 10.0 mi Calm Calm - N/A   Overcast
8:53 AM 36.0 °F - 19.9 °F 52% 30.04 in 10.0 mi Calm Calm - N/A   Mostly Cloudy
9:53 AM 37.9 °F 30.9 °F 19.9 °F 48% 30.02 in 10.0 mi East 10.4 mph - N/A   Overcast
10:53 AM 39.9 °F 35.8 °F 19.9 °F 45% 30.00 in 10.0 mi East 5.8 mph - N/A   Overcast
11:53 AM 39.9 °F - 21.0 °F 47% 29.99 in 10.0 mi Calm Calm - N/A   Mostly Cloudy
12:53 PM 43.0 °F 41.3 °F 19.9 °F 40% 29.97 in 10.0 mi North 3.5 mph - N/A   Overcast
1:53 PM 44.1 °F - 19.9 °F 38% 29.95 in 10.0 mi Calm Calm - N/A   Overcast
2:53 PM 44.1 °F - 19.0 °F 37% 29.95 in 10.0 mi Calm Calm - N/A   Overcast
3:53 PM 42.1 °F 37.1 °F 19.0 °F 40% 29.94 in 10.0 mi North 8.1 mph - N/A   Overcast
4:53 PM 41.0 °F - 23.0 °F 49% 29.94 in 10.0 mi Calm Calm - N/A   Overcast
5:09 PM 37.4 °F 30.8 °F 30.2 °F 75% 29.90 in 10.0 mi East 9.2 mph - 0.00 in Rain Light Rain
5:17 PM 37.4 °F 30.3 °F 30.2 °F 75% 29.90 in 10.0 mi ENE 10.4 mph - 0.00 in Rain Light Rain
5:53 PM 37.0 °F - 30.0 °F 76% 29.94 in 10.0 mi Calm Calm - 0.00 in   Overcast
6:53 PM 37.9 °F 34.4 °F 28.9 °F 70% 29.92 in 10.0 mi NE 4.6 mph - N/A   Overcast
7:53 PM 37.0 °F 33.3 °F 28.9 °F 73% 29.91 in 10.0 mi ESE 4.6 mph - N/A   Overcast
8:53 PM 36.0 °F - 28.9 °F 76% 29.90 in 10.0 mi Calm Calm - N/A   Overcast
9:53 PM 36.0 °F - 28.9 °F 76% 29.88 in 10.0 mi Calm Calm - N/A   Overcast
10:53 PM 32.0 °F - 27.0 °F 82% 29.87 in 10.0 mi Calm Calm - N/A   Mostly Cloudy
11:53 PM 34.0 °F - 28.0 °F 79% 29.86 in 10.0 mi Calm Calm - N/A   Overcast